Regional Weather Roundup
Issued by NWS

Home | Current Version | Previous Version | Graphics & Text | Print | Product List | Glossary On
Versions: 1 2 3 4 5 6 7 8 9 10 11 12 13 14 15 16 17 18 19 20 21 22 23 24 25 26 27 28 29 30 31 32 33 34 35 36 37 38 39 40 41 42 43 44 45 46 47 48 49 50
000
ASUS43 KFSD 251002
RWRSD

WEATHER ROUNDUP FOR SOUTH DAKOTA
NATIONAL WEATHER SERVICE SIOUX FALLS SD
500 AM CDT TUE JUL 25 2017

NOTE: "FAIR" INDICATES FEW OR NO CLOUDS BELOW 12,000 FEET WITH NO
SIGNIFICANT WEATHER AND/OR OBSTRUCTIONS TO VISIBILITY.


SDZ001>005-009-010-012>017-251100-
NORTHWEST AND NORTH CENTRAL SOUTH DAKOTA

CITY           SKY/WX    TMP DP  RH WIND       PRES   REMARKS
BUFFALO          N/A     73  61  65 NW10      29.87S
FAITH            N/A     66  66 100 NW14      29.89R
MOBRIDGE       CLEAR     66  64  93 CALM      29.78S
$$

SDZ012>016-024>037-041>051-057-063-072>074-251100-
SOUTHWEST AND SOUTH CENTRAL SOUTH DAKOTA

CITY           SKY/WX    TMP DP  RH WIND       PRES   REMARKS
RAPID CTY ARPT CLEAR     63  53  70 CALM      29.84F
PIERRE         CLEAR     66  61  84 NE5       29.77S
CUSTER         CLEAR     61  45  55 VRB5      30.03F
ELLSWORTH AFB  CLEAR     74  54  50 CALM      29.84S
PHILIP         CLEAR     69  57  65 NW3       29.80R
PINE RIDGE     CLEAR     73  58  59 SW7       29.88S
SPEARFISH      FAIR      70  54  56 CALM      29.95R
WINNER         FAIR      78  66  66 S20G28    29.81S
$$

SDZ004>011-016>023-039-040-251100-
NORTHEAST SOUTH DAKOTA

CITY           SKY/WX    TMP DP  RH WIND       PRES   REMARKS
ABERDEEN       CLEAR     68  66  93 SE10      29.82S
WATERTOWN      CLEAR     67  65  93 SE14      29.88F
BROOKINGS      CLEAR     68  64  87 S16G22    29.90F
SISSETON         N/A     66  65  96 S6        29.86S
$$

SDZ017-020-022-023-036>040-048>070-251100-
SOUTHEAST SOUTH DAKOTA

CITY           SKY/WX    TMP DP  RH WIND       PRES   REMARKS
SIOUX FALLS    PTCLDY    70  66  87 SE10      29.92S
HURON          CLEAR     70  67  90 MISG      29.81F
CHAMBERLAIN    CLEAR     77  69  77 SW8       29.80S
MITCHELL       CLEAR     75  69  81 S13       29.82S
YANKTON        CLEAR     71  67  87 SE9       29.89F
$$

ABBREVIATIONS USED IN REMARKS
   TC - TEMPERATURE IN CELSIUS
  WCI - WIND CHILL INDEX
   HX - HEAT INDEX
  VSB - VISIBILITY




USA.gov is the U.S. government's official web portal to all federal, state and local government web resources and services.